Weather History for Cheyenne, WY

Change the Weather History Date:

Sunday, June 23, 2013

  Actual Average Record
Temperature  
Mean Temperature 61 °F 65 °F  
Max Temperature 79 °F 78 °F 100 °F (1954)
Min Temperature 43 °F 51 °F 37 °F (1888)
Degree Days  
Heating Degree Days 4 3  
Month to date heating degree days 62 122  
Since 1 June heating degree days 62 122  
Since 1 July heating degree days 7184 7099  
Cooling Degree Days 0 2  
Month to date cooling degree days 59 28  
Year to date cooling degree days 65 31  
Since 1 June cooling degree days 59 28  
Growing Degree Days 12 (Base 50)    
Moisture  
Dew Point 40 °F    
Average Humidity 60    
Maximum Humidity 96    
Minimum Humidity 23    
Precipitation  
Precipitation 0.00 in 0.06 in 0.89 in (1977)
Month to date precipitation 0.15 1.89  
Year to date precipitation 5.64 7.86  
Snow  
Snow 0.00 in 0.00 in - ()
Month to date snowfall 0.0 0.0  
Since 1 July snowfall 87.1 60.3  
Snow Depth 0.00 in    
Sea Level Pressure  
Sea Level Pressure 29.80 in    
Wind  
Wind Speed 14 mph (South)    
Max Wind Speed 30 mph    
Max Gust Speed 39 mph    
Visibility 10 miles    
Events      
T = Trace of Precipitation, MM = Missing Value Source: NWS Daily Summary

Daily Weather History Graph

Daily Weather History Graph

Search for Another Location

Airport:

Trip Planner

Search our weather history database for the weather conditions in past years. The results will help you decide how hot, cold, wet, or windy it might be!

Date:

Astronomy

Jun. 23, 2013 Rise Set
Actual Time 5:27 AM MDT 8:35 PM MDT
Civil Twilight 4:53 AM MDT 9:09 PM MDT
Nautical Twilight 4:10 AM MDT 9:52 PM MDT
Astronomical Twilight 3:18 AM MDT 10:44 PM MDT
Moon 8:49 PM MDT (6/23) 5:48 AM MDT (6/23)
Length of Visible Light 16h 16m
Length of Day
15h 08m
Full, 100% of the Moon is Illuminated
Jun 23
Full
Jun 29
Last Quarter
Jul 8
New
Jul 15
First Quarter
Jul 22
Full

Hourly Weather History & Observations

Time (MDT) Temp. Windchill Dew Point Humidity Pressure Visibility Wind Dir Wind Speed Gust Speed Precip Events Conditions
12:53 AM 52.0 °F - 45.0 °F 77% 29.78 in 10.0 mi Calm Calm - N/A   Clear
1:53 AM 53.1 °F - 44.1 °F 71% 29.80 in 10.0 mi NNW 3.5 mph - N/A   Clear
2:53 AM 48.0 °F - 45.0 °F 89% 29.82 in 10.0 mi North 18.4 mph 27.6 mph N/A   Clear
3:53 AM 46.9 °F - 44.1 °F 90% 29.86 in 10.0 mi North 12.7 mph 20.7 mph N/A   Clear
4:53 AM 46.9 °F - 43.0 °F 86% 29.86 in 10.0 mi NNW 5.8 mph - N/A   Clear
5:53 AM 43.0 °F 38.8 °F 41.0 °F 93% 29.88 in 10.0 mi West 6.9 mph - N/A   Clear
6:53 AM 52.0 °F - 42.1 °F 69% 29.90 in 10.0 mi NNW 6.9 mph - N/A   Clear
7:53 AM 59.0 °F - 37.9 °F 46% 29.88 in 10.0 mi NNW 9.2 mph - N/A   Clear
8:53 AM 64.0 °F - 36.0 °F 35% 29.88 in 10.0 mi Variable 3.5 mph - N/A   Clear
9:53 AM 66.9 °F - 37.0 °F 33% 29.87 in 10.0 mi SE 9.2 mph - N/A   Clear
10:53 AM 69.1 °F - 36.0 °F 30% 29.86 in 10.0 mi South 11.5 mph 19.6 mph N/A   Clear
11:53 AM 73.0 °F - 35.1 °F 25% 29.82 in 10.0 mi South 17.3 mph 21.9 mph N/A   Clear
12:53 PM 73.9 °F - 33.1 °F 22% 29.81 in 10.0 mi South 16.1 mph 26.5 mph N/A   Clear
1:53 PM 75.0 °F - 36.0 °F 24% 29.79 in 10.0 mi South 17.3 mph 26.5 mph N/A   Clear
2:53 PM 75.9 °F - 35.1 °F 23% 29.78 in 10.0 mi South 19.6 mph 25.3 mph N/A   Clear
3:53 PM 77.0 °F - 37.0 °F 24% 29.76 in 10.0 mi South 21.9 mph 28.8 mph N/A   Clear
4:53 PM 77.0 °F - 39.0 °F 25% 29.74 in 10.0 mi South 15.0 mph 25.3 mph N/A   Clear
5:53 PM 75.9 °F - 41.0 °F 29% 29.74 in 10.0 mi South 15.0 mph 25.3 mph N/A   Clear
6:53 PM 75.9 °F - 43.0 °F 31% 29.70 in 10.0 mi SSE 18.4 mph 24.2 mph N/A   Clear
7:53 PM 72.0 °F - 48.0 °F 43% 29.72 in 10.0 mi SSE 15.0 mph 28.8 mph N/A   Clear
8:53 PM 66.0 °F - 43.0 °F 43% 29.73 in 10.0 mi South 16.1 mph 25.3 mph N/A   Clear
9:53 PM 66.9 °F - 42.1 °F 40% 29.69 in 10.0 mi SSE 25.3 mph 36.8 mph N/A   Mostly Cloudy
10:53 PM 66.9 °F - 39.9 °F 37% 29.72 in 10.0 mi SE 11.5 mph 24.2 mph N/A   Mostly Cloudy
11:53 PM 64.9 °F - 39.9 °F 40% 29.72 in 10.0 mi SSE 27.6 mph 35.7 mph N/A   Clear